Goldsboro, NC

5:29 AM EDT on April 26, 2018 (GMT -0400)
Seymour Johnson Air Force Base

Weather History for KGSB - August, 2013

Change the Weather History Date:

Monday, August 26, 2013

  Actual Average Record
Temperature  
Mean Temperature 70 °F -  
Max Temperature 83 °F 85 °F 94 °F (2016)
Min Temperature 58 °F 68 °F 58 °F (2013)
Cooling Degree Days 5    
Growing Degree Days 20 (Base 50)    
Moisture  
Dew Point 59 °F    
Average Humidity 70    
Maximum Humidity 97    
Minimum Humidity 39    
Precipitation  
Precipitation 0.00 in - - ()
Sea Level Pressure  
Sea Level Pressure 30.22 in    
Wind  
Wind Speed 2 mph (NE)    
Max Wind Speed 8 mph    
Max Gust Speed -    
Visibility 10 miles    
Events      
Averages and records for this station are not official NWS values.
T = Trace of Precipitation, MM = Missing Value Source: NWS Daily Summary

Daily Weather History Graph

Daily Weather History Graph

Search for Another Location

Airport or City:

Astronomy

Aug. 26, 2013 Rise Set
Actual Time 6:39 AM EDT 7:46 PM EDT
Civil Twilight 6:13 AM EDT 8:12 PM EDT
Nautical Twilight 5:42 AM EDT 8:43 PM EDT
Astronomical Twilight 5:09 AM EDT 9:16 PM EDT
Moon 11:11 PM EDT 12:24 PM EDT
Length of Visible Light 13h 59m
Length of Day
13h 06m
Waning Gibbous, 67% of the Moon is Illuminated
Aug 26
Waning Gibbous
Aug 28
Last Quarter
Sep 5
New
Sep 12
First Quarter
Sep 19
Full

Hourly Weather History & Observations

Time (EDT) Temp. Heat Index Dew Point Humidity Pressure Visibility Wind Dir Wind Speed Gust Speed Precip Events Conditions
12:58 AM 63.3 °F - 59.5 °F 87% 30.32 in 10.0 mi Calm Calm - N/A   Clear
1:58 AM 61.7 °F - 59.0 °F 91% 30.30 in 10.0 mi NNE 3.5 mph - N/A   Clear
2:58 AM 60.4 °F - 58.8 °F 94% 30.30 in 10.0 mi NE 2.3 mph - N/A   Clear
3:58 AM 59.9 °F - 58.6 °F 96% 30.29 in 10.0 mi NE 1.2 mph - N/A   Clear
4:58 AM 58.6 °F - 57.7 °F 97% 30.27 in 10.0 mi ENE 2.3 mph - N/A   Clear
5:58 AM 58.5 °F - 57.7 °F 97% 30.27 in 10.0 mi Calm Calm - N/A   Clear
6:58 AM 58.6 °F - 57.7 °F 97% 30.27 in 10.0 mi North 1.2 mph - N/A   Clear
7:58 AM 61.5 °F - 60.1 °F 95% 30.27 in 10.0 mi NNE 1.2 mph - N/A   Clear
8:58 AM 66.9 °F - 61.9 °F 84% 30.28 in 10.0 mi ENE 2.3 mph - N/A   Clear
9:58 AM 70.7 °F - 60.3 °F 69% 30.29 in 10.0 mi North 5.8 mph - N/A   Clear
10:58 AM 73.9 °F - 57.7 °F 57% 30.28 in 10.0 mi North 5.8 mph - N/A   Clear
11:58 AM 75.9 °F - 55.8 °F 49% 30.27 in 10.0 mi NE 8.1 mph - N/A   Clear
12:58 PM 77.9 °F - 52.2 °F 41% 30.25 in 10.0 mi Variable 1.2 mph - N/A   Clear
1:58 PM 80.1 °F - 52.9 °F 39% 30.22 in 10.0 mi ENE 2.3 mph - N/A   Clear
2:58 PM 80.8 °F 80.4 °F 53.6 °F 39% 30.20 in 10.0 mi Variable 2.3 mph - N/A   Clear
3:58 PM 82.9 °F 82.1 °F 55.6 °F 39% 30.17 in 10.0 mi ESE 2.3 mph - N/A   Clear
4:58 PM 82.2 °F 81.8 °F 56.5 °F 41% 30.15 in 10.0 mi Variable 4.6 mph - N/A   Clear
5:58 PM 81.7 °F 81.5 °F 57.2 °F 43% 30.13 in 10.0 mi SSW 4.6 mph - N/A   Clear
6:58 PM 79.9 °F - 60.1 °F 51% 30.13 in 10.0 mi SW 2.3 mph - N/A   Clear
7:58 PM 76.3 °F - 61.5 °F 60% 30.12 in 10.0 mi SSW 4.6 mph - N/A   Clear
8:58 PM 70.9 °F - 64.2 °F 79% 30.13 in 10.0 mi Calm Calm - N/A   Clear
9:58 PM 70.9 °F - 62.4 °F 75% 30.13 in 10.0 mi NNE 1.2 mph - N/A   Clear
10:58 PM 67.3 °F - 63.3 °F 87% 30.13 in 10.0 mi Calm Calm - N/A   Clear
11:58 PM 68.2 °F - 63.1 °F 84% 30.13 in 10.0 mi Calm Calm - N/A   Clear